Regional Weather Roundup
Issued by NWS

Home | Current Version | Previous Version | Graphics & Text | Print | Product List | Glossary On
Versions: 1 2 3 4 5 6 7 8 9 10 11 12 13 14 15 16 17 18 19 20 21 22 23 24 25 26 27
000
ASUS45 KCYS 230910
RWRWY

WYOMING REGIONAL WEATHER ROUNDUP
NATIONAL WEATHER SERVICE CHEYENNE WY
300 AM MDT MON APR 23 2018

NOTE:  "FAIR" INDICATES FEW OR NO CLOUDS BELOW 12,000 FEET
WITH NO SIGNIFICANT WEATHER AND/OR OBSTRUCTIONS TO VISIBILITY.

WYZ001-231000-
YELLOWSTONE NATIONAL PARK

CITY           SKY/WX    TMP DP  RH WIND       PRES   REMARKS
LK YELLOWSTONE   N/A     35  30  82 W6        30.10R WCI  30
W YELLOWSTONE  NOT AVBL

$$
WYZ002>013-054>058-071-098>099-231000-
NORTHERN WYOMING

CITY           SKY/WX    TMP DP  RH WIND       PRES   REMARKS
JACKSON        FAIR      39  31  72 E6        30.04R WCI  35
CODY           MOCLDY    46  27  47 N17G30    30.06R
GREYBULL       FAIR      50  33  52 NW14      29.96F
WORLAND        FAIR      49  31  49 N7        29.98R
SHERIDAN       FAIR      46  35  65 NW10      30.03R
BUFFALO        FAIR      48  36  63 SW3       30.03F
GILLETTE       FAIR      44  37  76 NE6       30.03S
HULETT         FAIR      45  36  70 CALM      30.08S
NEWCASTLE      FAIR      45  34  65 SE8       30.09S

$$
WYZ014>020-022>026-101>103-231000-
CENTRAL WYOMING

CITY           SKY/WX    TMP DP  RH WIND       PRES   REMARKS
BIG PINEY      FAIR      30  21  69 E6        30.02F WCI  24
PINEDALE       FAIR      30  23  74 W6        30.05S WCI  24
DUBOIS         FAIR      34  25  69 NW7       30.02F WCI  28
LANDER         FAIR      48  26  42 W6        29.95F
RIVERTON       FAIR      41  30  65 NW7       29.95F
CASPER         FAIR      41  33  73 NE3       30.02S
DOUGLAS        FAIR      42  38  85 SE13      30.04F

$$
WYZ021-027>030-104>119-231000-
SOUTHERN WYOMING

CITY           SKY/WX    TMP DP  RH WIND       PRES   REMARKS
EVANSTON       MOCLDY    49  27  42 W9        30.05R
KEMMERER       FAIR      36  27  69 N6        30.04F WCI  31
FORT BRIDGER   FAIR      44  26  49 S8        30.06S
ROCK SPRINGS   MOCLDY    48  26  42 SW9       30.05R
DIXON          FAIR      39  28  65 CALM      30.10S
RAWLINS          N/A    N/A N/A N/A MISG      30.07F
SARATOGA       FAIR      43  30  61 SE14      30.09F
LARAMIE        FAIR      38  32  79 S14       30.10F WCI  30
CHEYENNE       FAIR      38  35  89 SW3       30.11F
TORRINGTON     FAIR      36  36 100 E10       30.08F WCI  28
PINE BLUFFS    FAIR      32  32 100 MISG      30.11F

$$




USA.gov is the U.S. government's official web portal to all federal, state and local government web resources and services.